When you browse on this site, cookies collect data to enhance your experience and personalize the content and advertising you see.
Visit our Privacy Policy to learn more. By continuing to use the site, you agree to this use of cookies and data.
  • In Hungary
  • List of Countries
  • For 7 days
  • Water Temperature
  • Weather Map
  • News
  • Weather Widgets
  • user-avatar
    Login

    Hourly Weather Gradoczno

    Today, 12 December, Thursday

    Time Temperature Precipitation Wind Pressure Humidity
    00:00 -3°C° 0 mm 4 mps 748 mmHg 79%
    01:00 -3°C° 0 mm 4 mps 748 mmHg 79%
    02:00 -2°C° 0 mm 4 mps 748 mmHg 79%
    03:00 -2°C° 0.1 mm 4 mps 747 mmHg 84%
    04:00 -2°C° 0.1 mm 5 mps 746 mmHg 90%
    05:00 -2°C° 0.1 mm 5 mps 745 mmHg 95%
    06:00 -1°C° 0.3 mm 4 mps 745 mmHg 96%
    07:00 -1°C° 0.3 mm 4 mps 745 mmHg 96%
    08:00 -1°C° 0.3 mm 4 mps 745 mmHg 96%
    09:00 -1°C° 0.1 mm 4 mps 744 mmHg 90%
    10:00 -1°C° 0.1 mm 5 mps 744 mmHg 85%
    11:00 -2°C° 0.1 mm 6 mps 744 mmHg 79%
    12:00 0°C° 0 mm 5 mps 744 mmHg 74%
    13:00 0°C° 0 mm 5 mps 744 mmHg 70%
    14:00 0°C° 0 mm 5 mps 744 mmHg 65%
    15:00 0°C° 0 mm 4 mps 744 mmHg 72%
    16:00 0°C° 0 mm 4 mps 743 mmHg 80%
    17:00 0°C° 0 mm 4 mps 743 mmHg 87%
    18:00 0°C° 0 mm 4 mps 743 mmHg 88%
    19:00 0°C° 0 mm 4 mps 743 mmHg 89%
    20:00 0°C° 0 mm 4 mps 743 mmHg 89%
    21:00 -1°C° 0 mm 4 mps 743 mmHg 91%
    22:00 -1°C° 0 mm 4 mps 743 mmHg 93%
    23:00 0°C° 0 mm 3 mps 742 mmHg 94%

    Tomorrow, 13 December, Friday

    Time Temperature Precipitation Wind Pressure Humidity
    00:00 0°C° 0 mm 3 mps 742 mmHg 94%
    01:00 0°C° 0 mm 3 mps 742 mmHg 94%
    02:00 0°C° 0 mm 3 mps 741 mmHg 93%
    03:00 -1°C° 0 mm 4 mps 741 mmHg 93%
    04:00 0°C° 0 mm 4 mps 740 mmHg 92%
    05:00 0°C° 0 mm 4 mps 739 mmHg 92%
    06:00 0°C° 0 mm 4 mps 739 mmHg 91%
    07:00 0°C° 0 mm 5 mps 739 mmHg 91%
    08:00 0°C° 0 mm 5 mps 738 mmHg 91%
    09:00 +1°C° 0 mm 5 mps 738 mmHg 88%
    10:00 +1°C° 0 mm 6 mps 737 mmHg 86%
    11:00 +2°C° 0 mm 6 mps 737 mmHg 84%
    12:00 +2°C° 0 mm 6 mps 737 mmHg 82%
    13:00 +2°C° 0 mm 6 mps 736 mmHg 81%
    14:00 +2°C° 0 mm 6 mps 736 mmHg 80%
    15:00 +2°C° 0 mm 6 mps 736 mmHg 80%
    16:00 +2°C° 0 mm 6 mps 735 mmHg 80%
    17:00 +2°C° 0 mm 6 mps 735 mmHg 80%
    18:00 +2°C° 0 mm 6 mps 735 mmHg 80%
    19:00 +2°C° 0 mm 7 mps 735 mmHg 80%
    20:00 +2°C° 0 mm 7 mps 735 mmHg 80%
    21:00 +2°C° 0.2 mm 7 mps 735 mmHg 82%
    22:00 +2°C° 0.2 mm 7 mps 735 mmHg 84%
    23:00 +2°C° 0.2 mm 6 mps 735 mmHg 86%

    Day after tomorrow, 14 December, Saturday

    Time Temperature Precipitation Wind Pressure Humidity
    00:00 +2°C° 0.1 mm 6 mps 735 mmHg 85%
    01:00 +2°C° 0.1 mm 6 mps 736 mmHg 85%
    02:00 +2°C° 0.1 mm 6 mps 736 mmHg 85%
    03:00 +2°C° 0.1 mm 6 mps 736 mmHg 86%
    04:00 +2°C° 0.1 mm 6 mps 736 mmHg 87%
    05:00 +2°C° 0.1 mm 5 mps 736 mmHg 87%
    06:00 +2°C° 0 mm 5 mps 736 mmHg 88%
    07:00 +2°C° 0 mm 5 mps 737 mmHg 89%
    08:00 +2°C° 0 mm 5 mps 737 mmHg 90%
    09:00 +2°C° 0 mm 5 mps 737 mmHg 89%
    10:00 +2°C° 0 mm 5 mps 738 mmHg 89%
    11:00 +2°C° 0 mm 5 mps 738 mmHg 88%
    12:00 +3°C° 0 mm 5 mps 738 mmHg 86%
    13:00 +3°C° 0 mm 5 mps 738 mmHg 84%
    14:00 +3°C° 0 mm 5 mps 738 mmHg 82%
    15:00 +3°C° 0 mm 5 mps 738 mmHg 82%
    16:00 +3°C° 0 mm 4 mps 738 mmHg 83%
    17:00 +3°C° 0 mm 4 mps 738 mmHg 84%
    18:00 +2°C° 0 mm 5 mps 738 mmHg 84%
    19:00 +1°C° 0 mm 5 mps 738 mmHg 84%
    20:00 +1°C° 0 mm 5 mps 738 mmHg 84%
    21:00 +1°C° 0 mm 5 mps 738 mmHg 86%
    22:00 +1°C° 0 mm 5 mps 738 mmHg 88%
    23:00 +1°C° 0 mm 6 mps 738 mmHg 91%

    15 December, Sunday

    Time Temperature Precipitation Wind Pressure Humidity
    00:00 +1°C° 0.2 mm 6 mps 739 mmHg 90%
    01:00 +1°C° 0.2 mm 6 mps 739 mmHg 90%
    02:00 +2°C° 0.2 mm 6 mps 740 mmHg 89%
    03:00 +1°C° 0 mm 6 mps 740 mmHg 87%
    04:00 +1°C° 0 mm 5 mps 741 mmHg 85%
    05:00 +1°C° 0 mm 5 mps 741 mmHg 82%
    06:00 0°C° 0 mm 5 mps 742 mmHg 82%
    07:00 0°C° 0 mm 5 mps 742 mmHg 81%
    08:00 0°C° 0 mm 5 mps 742 mmHg 81%
    09:00 0°C° 0 mm 5 mps 743 mmHg 79%
    10:00 +1°C° 0 mm 5 mps 743 mmHg 78%
    11:00 +1°C° 0 mm 5 mps 744 mmHg 77%
    12:00 +2°C° 0 mm 5 mps 744 mmHg 76%
    13:00 +2°C° 0 mm 5 mps 743 mmHg 75%
    14:00 +3°C° 0 mm 5 mps 743 mmHg 74%
    15:00 +3°C° 0.6 mm 6 mps 743 mmHg 78%
    16:00 +3°C° 0.6 mm 7 mps 743 mmHg 81%
    17:00 +4°C° 0.6 mm 8 mps 742 mmHg 85%
    18:00 +4°C° 0.5 mm 8 mps 742 mmHg 84%
    19:00 +4°C° 0.5 mm 8 mps 742 mmHg 82%
    20:00 +5°C° 0.5 mm 8 mps 743 mmHg 81%
    21:00 +5°C° 0.4 mm 8 mps 744 mmHg 76%
    22:00 +5°C° 0.4 mm 8 mps 745 mmHg 72%
    23:00 +4°C° 0.4 mm 8 mps 746 mmHg 67%

    16 December, Monday

    Time Temperature Precipitation Wind Pressure Humidity
    00:00 +3°C° 0 mm 7 mps 746 mmHg 66%
    01:00 +2°C° 0 mm 6 mps 747 mmHg 65%
    02:00 +1°C° 0 mm 6 mps 748 mmHg 64%
    03:00 +1°C° 0 mm 5 mps 749 mmHg 67%
    04:00 0°C° 0 mm 4 mps 749 mmHg 69%
    05:00 0°C° 0 mm 4 mps 750 mmHg 72%
    06:00 0°C° 0 mm 4 mps 750 mmHg 73%
    07:00 0°C° 0 mm 4 mps 750 mmHg 74%
    08:00 -1°C° 0 mm 4 mps 750 mmHg 75%
    09:00 0°C° 0 mm 4 mps 750 mmHg 73%
    10:00 +1°C° 0 mm 5 mps 750 mmHg 70%
    11:00 +2°C° 0 mm 5 mps 751 mmHg 68%
    12:00 +2°C° 0 mm 5 mps 750 mmHg 72%
    13:00 +4°C° 0 mm 4 mps 750 mmHg 75%
    14:00 +5°C° 0 mm 4 mps 750 mmHg 79%
    15:00 +4°C° 0 mm 4 mps 750 mmHg 82%
    16:00 +3°C° 0 mm 3 mps 750 mmHg 85%
    17:00 +3°C° 0 mm 3 mps 750 mmHg 87%
    18:00 +3°C° 0 mm 3 mps 750 mmHg 88%
    19:00 +3°C° 0 mm 3 mps 750 mmHg 88%
    20:00 +4°C° 0 mm 2 mps 750 mmHg 88%
    21:00 +4°C° 0 mm 2 mps 750 mmHg 88%
    22:00 +4°C° 0 mm 2 mps 750 mmHg 88%
    23:00 +4°C° 0 mm 2 mps 750 mmHg 88%

    17 December, Tuesday

    Time Temperature Precipitation Wind Pressure Humidity
    00:00 +4°C° 0 mm 2 mps 750 mmHg 89%
    01:00 +4°C° 0 mm 2 mps 749 mmHg 89%
    02:00 +4°C° 0 mm 2 mps 749 mmHg 90%
    03:00 +4°C° 0 mm 2 mps 749 mmHg 91%
    04:00 +3°C° 0 mm 2 mps 749 mmHg 91%
    05:00 +3°C° 0 mm 2 mps 749 mmHg 92%
    06:00 +3°C° 0 mm 2 mps 749 mmHg 92%
    07:00 +3°C° 0 mm 2 mps 748 mmHg 93%
    08:00 +3°C° 0 mm 2 mps 748 mmHg 93%
    09:00 +3°C° 0 mm 2 mps 748 mmHg 92%
    10:00 +3°C° 0 mm 2 mps 749 mmHg 91%
    11:00 +4°C° 0 mm 2 mps 749 mmHg 90%
    12:00 +4°C° 0 mm 2 mps 748 mmHg 87%
    13:00 +5°C° 0 mm 2 mps 748 mmHg 85%
    14:00 +5°C° 0 mm 2 mps 747 mmHg 83%
    15:00 +5°C° 0 mm 2 mps 747 mmHg 86%
    16:00 +4°C° 0 mm 2 mps 747 mmHg 89%
    17:00 +4°C° 0 mm 2 mps 747 mmHg 92%
    18:00 +4°C° 0 mm 2 mps 747 mmHg 92%
    19:00 +4°C° 0 mm 2 mps 747 mmHg 92%
    20:00 +4°C° 0 mm 2 mps 747 mmHg 92%
    21:00 +4°C° 0 mm 2 mps 747 mmHg 92%
    22:00 +4°C° 0 mm 2 mps 746 mmHg 93%
    23:00 +4°C° 0 mm 2 mps 746 mmHg 93%
    Show more